N1EDU Weather Reports


time (UTC)temp
C
wind
direction
speed
KPH
gust
KPH
rain 1hr
cm
rain 24hr
cm
rain mn
cm
humidity
%
barometer
mb
20260507070242 8 291 6.4 16.1 0.00 0.00 0.00 99 1005.7
20260507065710 8 304 11.3 16.1 0.00 0.00 0.00 99 1005.7
20260507065209 8 337 0.0 12.9 0.00 0.00 0.00 99 1005.7
20260507064708 8 337 6.4 12.9 0.00 0.00 0.00 99 1005.7
20260507064207 8 311 4.8 14.5 0.00 0.00 0.00 99 1005.7
20260507063706 8 315 6.4 14.5 0.00 0.00 0.00 99 1005.7
20260507063205 8 284 3.2 12.9 0.00 0.00 0.00 99 1005.7
20260507062705 8 278 6.4 12.9 0.00 0.00 0.00 99 1005.7
20260507062204 8 288 6.4 12.9 0.00 0.00 0.00 99 1005.8
20260507061632 8 317 4.8 12.9 0.00 0.00 0.00 99 1005.8
20260507061131 8 297 8.0 16.1 0.00 0.00 0.00 99 1005.8
20260507060630 8 282 9.7 16.1 0.00 0.00 0.00 99 1005.8
20260507060129 8 268 4.8 14.5 0.00 0.00 0.00 99 1005.8
20260507055628 8 273 3.2 17.7 0.00 0.00 0.00 98 1005.8
20260507055127 8 274 9.7 17.7 0.00 0.00 0.00 99 1005.8
20260507054555 8 283 8.0 16.1 0.00 0.00 0.00 99 1005.4
20260507054054 8 285 9.7 16.1 0.00 0.00 0.00 99 1005.5
20260507053553 8 261 8.0 12.9 0.00 0.00 0.00 99 1005.5
20260507053053 9 280 8.0 12.9 0.00 0.00 0.00 98 1005.5
20260507052521 9 283 6.4 16.1 0.00 0.00 0.00 98 1005.5
20260507052020 9 300 6.4 19.3 0.00 0.00 0.00 98 1005.8
20260507051519 9 287 11.3 19.3 0.00 0.00 0.00 99 1005.5
20260507051019 9 272 9.7 14.5 0.00 0.00 0.00 99 1005.5
20260507050344 9 273 6.4 11.3 0.00 0.00 0.00 99 1005.5
20260507045843 10 335 0.0 11.3 0.00 0.00 0.00 99 1005.5
20260507045342 10 251 8.0 11.3 0.00 0.00 0.00 99 1005.5
20260507044841 10 326 0.0 6.4 0.00 0.00 0.00 99 1005.8
20260507044340 10 326 0.0 6.4 0.00 0.00 0.00 99 1005.5
20260507043839 10 320 0.0 8.0 0.00 0.00 0.00 99 1005.8
20260507043336 10 308 6.4 8.0 0.00 0.00 0.00 99 1005.5
20260507042835 10 170 3.2 8.0 0.00 0.00 0.00 99 1005.5
20260507042232 10 337 4.8 9.7 0.00 0.00 0.00 99 1005.8
20260507041731 10 307 3.2 9.7 0.00 0.00 0.00 99 1005.5
20260507041230 10 300 1.6 11.3 0.00 0.00 0.00 99 1005.5
20260507040729 10 294 4.8 11.3 0.00 0.00 0.00 99 1005.5
20260507040229 10 272 4.8 11.3 0.00 0.00 0.00 99 1005.1
20260507035728 11 299 4.8 8.0 0.00 0.00 0.00 99 1005.2
20260507035156 11 315 3.2 11.3 0.00 0.00 0.00 99 1005.2
20260507034624 11 327 3.2 11.3 0.00 0.00 0.00 99 1005.2
20260507034052 11 296 0.0 11.3 0.00 0.00 0.00 99 1005.2
20260507033520 11 199 3.2 12.9 0.00 0.00 0.00 99 1005.2
20260507033019 11 307 6.4 14.5 0.00 0.00 0.00 99 1005.2
20260507032519 12 345 3.2 14.5 0.00 0.00 0.00 99 1005.2
20260507031947 12 323 9.7 20.9 0.00 0.00 0.00 99 1005.2
20260507031446 12 316 11.3 19.3 0.00 0.00 0.00 99 1005.2
20260507030914 12 299 6.4 12.9 0.00 0.00 0.00 100 1005.1
20260507030413 13 296 6.4 12.9 0.00 0.00 0.00 100 1005.1
20260507025912 13 299 6.4 16.1 0.00 0.00 0.00 100 1005.1
20260507025412 13 283 6.4 16.1 0.00 0.00 0.00 100 1004.8
20260507024910 13 303 6.4 12.9 0.00 0.00 0.00 100 1004.8
20260507024410 13 290 0.0 19.3 0.00 0.00 0.00 100 1004.5
20260507023836 13 302 11.3 19.3 0.00 0.00 0.00 100 1004.8
20260507023304 13 318 6.4 25.7 0.00 0.00 0.00 100 1004.8
20260507022803 13 319 6.4 25.7 0.00 0.00 0.00 100 1004.8
20260507022302 14 308 11.3 19.3 0.00 0.00 0.00 100 1004.5
20260507021801 14 316 8.0 17.7 0.00 0.00 0.00 100 1004.5
20260507021300 15 287 4.8 8.0 0.00 0.00 0.00 100 1004.5
20260507020759 15 278 4.8 8.0 0.00 0.00 0.00 100 1004.1
20260507020258 15 237 3.2 11.3 0.00 0.00 0.00 100 1004.5
20260507015757 15 218 4.8 12.9 0.00 0.00 0.00 100 1004.5
20260507015255 15 243 6.4 12.9 0.00 0.00 0.00 100 1004.5
20260507014754 15 238 4.8 14.5 0.00 0.00 0.00 100 1004.5
20260507014253 15 240 4.8 14.5 0.00 0.00 0.00 100 1004.5
20260507013752 15 221 4.8 12.9 0.00 0.00 0.00 100 1004.5
20260507013252 15 209 4.8 12.9 0.00 0.00 0.00 100 1004.5
20260507012751 15 190 1.6 14.5 0.00 0.00 0.00 100 1004.5
20260507012250 15 238 4.8 14.5 0.00 0.00 0.00 100 1004.5
20260507011749 15 242 6.4 12.9 0.00 0.00 0.00 100 1004.5
20260507011248 15 222 4.8 11.3 0.00 0.00 0.00 100 1004.5
20260507010747 15 187 6.4 16.1 0.00 0.00 0.00 100 1004.5
20260507010247 15 234 4.8 16.1 0.00 0.00 0.00 100 1004.5
20260507005746 15 238 6.4 14.5 0.00 0.00 0.00 100 1004.5
20260507005245 15 233 4.8 14.5 0.00 0.00 0.00 100 1004.5
20260507004744 15 274 6.4 16.1 0.00 0.00 0.00 100 1004.5
20260507004243 15 236 6.4 16.1 0.00 0.00 0.00 100 1004.4
20260507003742 15 240 6.4 16.1 0.00 0.00 0.00 100 1004.4
20260507003241 15 233 6.4 16.1 0.00 0.00 0.00 100 1004.4
20260507002741 15 243 8.0 22.5 0.00 0.00 0.00 100 1004.4
20260507002240 15 214 8.0 22.5 0.00 0.00 0.00 100 1004.4
20260507001739 15 245 9.7 19.3 0.00 0.00 0.00 100 1004.4
20260507001238 15 225 6.4 16.1 0.00 0.00 0.00 100 1004.4
20260507000737 15 216 4.8 16.1 0.00 0.00 0.00 100 1004.1
20260507000236 15 207 8.0 16.1 0.00 0.00 0.00 100 1004.1
20260506235735 15 212 4.8 16.1 0.00 0.00 0.00 100 1004.1
20260506235235 15 241 6.4 14.5 0.00 0.00 0.00 100 1004.1
20260506234734 15 233 6.4 17.7 0.00 0.00 0.00 100 1004.1
20260506234234 15 228 8.0 20.9 0.00 0.00 0.00 100 1004.1
20260506233701 15 210 6.4 20.9 0.00 0.00 0.00 100 1004.1
20260506233201 15 206 11.3 20.9 0.00 0.00 0.00 100 1004.4
20260506232659 15 217 8.0 27.4 0.00 0.00 0.00 100 1004.4
20260506232159 15 221 9.7 27.4 0.00 0.00 0.00 100 1004.4
20260506231658 15 224 6.4 12.9 0.00 0.00 0.00 100 1004.4
20260506231125 15 230 0.0 16.1 0.00 0.00 0.00 100 1004.4
20260506230625 15 227 6.4 16.1 0.00 0.00 0.00 100 1004.4
20260506230124 15 220 8.0 16.1 0.00 0.00 0.00 100 1004.1
20260506225623 15 237 4.8 16.1 0.00 0.00 0.00 100 1004.4
20260506225122 15 231 3.2 16.1 0.00 0.00 0.00 100 1004.4
20260506224550 15 229 6.4 20.9 0.00 0.00 0.00 100 1004.4
20260506224049 15 218 9.7 20.9 0.00 0.00 0.00 100 1004.4
20260506223548 15 205 11.3 17.7 0.00 0.00 0.00 100 1004.4
20260506223016 15 223 6.4 17.7 0.00 0.00 0.00 100 1004.4
20260506222515 15 197 4.8 17.7 0.00 0.00 0.00 100 1004.4
20260506222014 15 212 6.4 17.7 0.00 0.00 0.00 100 1004.4
20260506221514 15 229 9.7 20.9 0.00 0.00 0.00 100 1004.7
20260506220910 15 205 3.2 20.9 0.00 0.00 0.00 100 1004.7
20260506220409 15 215 6.4 16.1 0.00 0.00 0.00 100 1004.7
20260506215908 15 205 6.4 20.9 0.00 0.00 0.00 100 1004.7
20260506215408 15 215 9.7 20.9 0.00 0.00 0.00 100 1004.7
20260506214805 15 254 0.0 19.3 0.00 0.00 0.00 100 1004.7
20260506214304 15 205 6.4 22.5 0.00 0.00 0.00 100 1004.7
20260506213803 15 221 6.4 22.5 0.00 0.00 0.00 100 1004.7
20260506213302 15 189 3.2 16.1 0.00 0.00 0.00 100 1004.7
20260506212801 16 231 1.6 14.5 0.00 0.00 0.00 100 1004.7
20260506212300 16 196 6.4 16.1 0.00 0.00 0.00 100 1004.7
20260506211800 16 206 8.0 16.1 0.00 0.00 0.00 100 1005.1
20260506211156 16 215 6.4 16.1 0.00 0.00 0.00 100 1005.1
20260506210655 16 214 6.4 20.9 0.00 0.00 0.00 100 1005.1
20260506210155 16 204 8.0 20.9 0.00 0.00 0.00 100 1005.1
20260506205654 16 208 8.0 14.5 0.00 0.00 0.00 100 1005.1
20260506205153 16 200 3.2 16.1 0.00 0.00 0.00 100 1005.1
20260506204621 16 206 8.0 16.1 0.00 0.00 0.00 100 1005.1
20260506204120 16 216 9.7 16.1 0.00 0.00 0.00 100 1005.1
20260506203619 16 206 6.4 14.5 0.00 0.00 0.00 100 1005.4
20260506203119 16 221 4.8 11.3 0.00 0.00 0.00 100 1005.4
20260506202547 16 215 4.8 11.3 0.00 0.00 0.00 100 1005.4
20260506201943 16 218 4.8 11.3 0.00 0.00 0.00 99 1005.5
20260506201443 16 232 4.8 9.7 0.00 0.00 0.00 99 1005.5
20260506200942 16 217 4.8 9.7 0.00 0.00 0.00 99 1005.5
20260506200441 16 205 3.2 12.9 0.00 0.00 0.00 99 1005.5
20260506195940 16 218 3.2 12.9 0.00 0.00 0.00 99 1005.5
20260506195440 16 214 3.2 16.1 0.00 0.00 0.00 99 1005.5
20260506194908 16 213 8.0 16.1 0.00 0.00 0.00 99 1005.2
20260506194407 16 223 6.4 11.3 0.00 0.00 0.00 99 1005.2
20260506193906 16 216 4.8 9.7 0.00 0.00 0.00 99 1005.5
20260506193334 16 219 3.2 9.7 0.00 0.00 0.00 99 1005.5
20260506192834 16 178 1.6 12.9 0.00 0.00 0.00 99 1005.5
20260506192333 16 243 4.8 12.9 0.00 0.00 0.00 99 1005.5
20260506191832 16 222 3.2 11.3 0.00 0.00 0.00 99 1005.8
20260506191259 16 200 6.4 11.3 0.00 0.00 0.00 99 1005.8
20260506190759 16 206 8.0 11.3 0.00 0.00 0.00 99 1005.8
20260506190258 16 202 3.2 8.0 0.00 0.00 0.00 99 1006.2
20260506185757 16 245 3.2 9.7 0.00 0.00 0.00 99 1006.2
20260506185257 16 215 4.8 8.0 0.00 0.00 0.00 98 1006.2
20260506184622 16 200 1.6 8.0 0.00 0.00 0.00 98 1006.5
20260506184122 16 249 3.2 8.0 0.00 0.00 0.00 98 1006.2
20260506183621 16 234 4.8 11.3 0.00 0.00 0.00 98 1006.2
20260506183120 16 224 4.8 11.3 0.00 0.00 0.00 97 1006.2
20260506182548 16 190 1.6 12.9 0.00 0.00 0.00 97 1006.5
20260506182047 16 258 8.0 17.7 0.00 0.00 0.00 97 1006.5
20260506181515 16 266 6.4 17.7 0.00 0.00 0.00 96 1006.9
20260506181014 16 228 4.8 20.9 0.00 0.00 0.00 96 1006.9
20260506180513 17 272 12.9 20.9 0.00 0.00 0.00 95 1006.5
20260506180012 17 272 8.0 20.9 0.00 0.00 0.00 91 1006.5
20260506175512 18 247 11.3 17.7 0.00 0.00 0.00 86 1006.5
20260506175011 18 234 4.8 17.7 0.00 0.00 0.00 81 1006.2
20260506174510 19 228 8.0 25.7 0.00 0.00 0.00 76 1006.2
20260506174009 20 246 16.1 25.7 0.00 0.00 0.00 68 1005.9
20260506173407 20 217 9.7 22.5 0.00 0.00 0.00 64 1005.9
20260506172906 21 225 14.5 30.6 0.00 0.00 0.00 62 1005.9
20260506172405 21 227 11.3 37.0 0.00 0.00 0.00 62 1005.9
20260506171904 21 208 22.5 37.0 0.00 0.00 0.00 61 1005.9
20260506171402 21 213 8.0 25.7 0.00 0.00 0.00 61 1005.9
20260506170901 21 205 9.7 29.0 0.00 0.00 0.00 61 1005.9
20260506170329 21 213 12.9 29.0 0.00 0.00 0.00 61 1006.2
20260506165828 21 225 11.3 27.4 0.00 0.00 0.00 62 1006.2
20260506165327 21 211 12.9 30.6 0.00 0.00 0.00 62 1006.2
20260506164755 21 228 12.9 30.6 0.00 0.00 0.00 61 1006.6
20260506164254 21 212 11.3 29.0 0.00 0.00 0.00 62 1006.6
20260506163754 21 218 12.9 29.0 0.00 0.00 0.00 63 1006.6
20260506163253 21 216 8.0 17.7 0.00 0.00 0.00 65 1006.6
20260506162752 21 204 8.0 20.9 0.00 0.00 0.00 65 1006.9
20260506162251 21 206 6.4 20.9 0.00 0.00 0.00 65 1006.9
20260506161750 20 210 9.7 29.0 0.00 0.00 0.00 66 1006.9
20260506161250 20 221 9.7 29.0 0.00 0.00 0.00 65 1007.2
20260506160748 20 216 11.3 20.9 0.00 0.00 0.00 66 1007.2
20260506160248 20 242 11.3 17.7 0.00 0.00 0.00 67 1007.6
20260506155716 20 238 9.7 17.7 0.00 0.00 0.00 67 1007.6
20260506155144 20 210 11.3 17.7 0.00 0.00 0.00 68 1007.6
20260506154643 20 245 9.7 22.5 0.00 0.00 0.00 67 1007.9
20260506154143 20 224 11.3 22.5 0.00 0.00 0.00 66 1007.9
20260506153642 20 250 6.4 19.3 0.00 0.00 0.00 68 1007.9
20260506153141 20 223 9.7 30.6 0.00 0.00 0.00 68 1008.2
20260506152640 20 260 14.5 30.6 0.00 0.00 0.00 68 1008.2
20260506152139 20 221 8.0 20.9 0.00 0.00 0.00 69 1008.2
20260506151607 20 214 9.7 19.3 0.00 0.00 0.00 69 1008.2
20260506151106 20 218 11.3 20.9 0.00 0.00 0.00 69 1007.9
20260506150606 20 209 11.3 20.9 0.00 0.00 0.00 69 1007.9
20260506150105 20 203 11.3 20.9 0.00 0.00 0.00 69 1008.2
20260506145604 20 250 8.0 20.9 0.00 0.00 0.00 68 1008.3
20260506145104 20 241 11.3 24.1 0.00 0.00 0.00 67 1007.9
20260506144603 20 195 9.7 24.1 0.00 0.00 0.00 70 1007.9
20260506144102 20 230 9.7 20.9 0.00 0.00 0.00 69 1007.9
20260506143601 20 221 9.7 22.5 0.00 0.00 0.00 70 1007.9
20260506143100 20 230 8.0 25.7 0.00 0.00 0.00 71 1007.9
20260506142600 20 217 9.7 25.7 0.00 0.00 0.00 72 1007.9
20260506142059 19 207 9.7 20.9 0.00 0.00 0.00 72 1007.9
20260506141558 19 215 4.8 19.3 0.00 0.00 0.00 73 1007.9
20260506141057 19 214 8.0 12.9 0.00 0.00 0.00 75 1007.9
20260506140556 18 275 6.4 16.1 0.00 0.00 0.00 75 1007.9
20260506140024 18 204 4.8 17.7 0.00 0.00 0.00 77 1007.9
20260506135523 18 214 6.4 17.7 0.00 0.00 0.00 77 1007.9
20260506135022 18 223 8.0 17.7 0.00 0.00 0.00 77 1007.9
20260506134521 18 206 11.3 17.7 0.00 0.00 0.00 78 1007.9
20260506134021 18 260 3.2 17.7 0.00 0.00 0.00 79 1008.3
20260506133520 17 248 6.4 20.9 0.00 0.00 0.00 79 1008.3
20260506133019 17 235 8.0 20.9 0.00 0.00 0.00 80 1008.3
20260506132518 17 251 9.7 20.9 0.00 0.00 0.00 80 1008.3
20260506132017 17 219 9.7 19.3 0.00 0.00 0.00 80 1008.3
20260506131445 17 238 8.0 19.3 0.00 0.00 0.00 80 1008.6
20260506130913 17 223 11.3 19.3 0.00 0.00 0.00 80 1008.3
20260506130412 17 225 9.7 19.3 0.00 0.00 0.00 80 1008.6
20260506125912 17 208 4.8 19.3 0.00 0.00 0.00 80 1008.6
20260506125411 17 242 8.0 19.3 0.00 0.00 0.00 81 1008.3
20260506124839 17 220 8.0 19.3 0.00 0.00 0.00 81 1008.3
20260506124338 17 242 4.8 14.5 0.00 0.00 0.00 82 1008.3
20260506123837 17 213 8.0 14.5 0.00 0.00 0.00 82 1008.3
20260506123337 17 226 8.0 12.9 0.00 0.00 0.00 82 1008.6
20260506122836 17 215 6.4 12.9 0.00 0.00 0.00 82 1008.6
20260506122335 17 202 6.4 16.1 0.00 0.00 0.00 82 1008.6
20260506121834 16 213 6.4 16.1 0.00 0.00 0.00 82 1008.6
20260506121333 16 231 9.7 14.5 0.00 0.00 0.00 82 1008.6
20260506120833 16 229 4.8 12.9 0.00 0.00 0.00 84 1008.6
20260506120301 16 217 9.7 12.9 0.00 0.00 0.00 85 1008.6
20260506115800 16 224 6.4 14.5 0.00 0.00 0.00 85 1008.6
20260506115259 16 215 6.4 16.1 0.00 0.00 0.00 86 1008.9
20260506114758 16 242 9.7 16.1 0.00 0.00 0.00 85 1008.9
20260506114257 16 198 4.8 14.5 0.00 0.00 0.00 85 1008.9
20260506113754 16 244 9.7 14.5 0.00 0.00 0.00 85 1008.9
20260506113253 16 243 6.4 11.3 0.00 0.00 0.00 86 1008.9
20260506112752 15 238 4.8 8.0 0.00 0.00 0.00 89 1008.6
20260506112251 15 241 4.8 8.0 0.00 0.00 0.00 92 1008.9
20260506111750 15 232 4.8 9.7 0.00 0.00 0.00 92 1009.0
20260506111250 14 244 6.4 9.7 0.00 0.00 0.00 92 1009.0
20260506110749 14 205 3.2 6.4 0.00 0.00 0.00 94 1009.0
20260506110248 13 265 1.6 6.4 0.00 0.00 0.00 95 1009.3
20260506105747 13 293 4.8 6.4 0.00 0.00 0.00 95 1009.3
20260506105243 13 268 1.6 6.4 0.00 0.00 0.00 94 1009.0
20260506104742 13 240 3.2 6.4 0.00 0.00 0.00 94 1009.0
20260506104241 13 284 3.2 8.0 0.00 0.00 0.00 94 1009.3
20260506103741 13 269 4.8 9.7 0.00 0.00 0.00 95 1009.0
20260506103208 13 223 3.2 12.9 0.00 0.00 0.00 95 1009.0
20260506102708 13 239 4.8 12.9 0.00 0.00 0.00 95 1009.0
20260506102207 13 187 3.2 14.5 0.00 0.00 0.00 96 1009.3
20260506101706 13 215 4.8 14.5 0.00 0.00 0.00 96 1009.0
20260506101205 12 216 8.0 16.1 0.00 0.00 0.00 96 1008.6
20260506100704 12 211 4.8 16.1 0.00 0.00 0.00 96 1009.0
20260506100204 12 222 8.0 14.5 0.00 0.00 0.00 97 1009.0
20260506095703 12 215 6.4 14.5 0.00 0.00 0.00 97 1009.0
20260506095202 11 221 6.4 14.5 0.00 0.00 0.00 97 1008.6
20260506094630 11 235 4.8 11.3 0.00 0.00 0.00 97 1008.6
20260506094129 11 237 3.2 8.0 0.00 0.00 0.00 97 1008.9
20260506093628 11 243 1.6 4.8 0.00 0.00 0.00 97 1008.6
20260506093128 11 228 1.6 4.8 0.00 0.00 0.00 96 1008.6
20260506092627 11 241 1.6 6.4 0.00 0.00 0.00 96 1009.0
20260506092054 11 236 3.2 6.4 0.00 0.00 0.00 96 1008.6
20260506091553 11 242 3.2 8.0 0.00 0.00 0.00 96 1008.6
20260506091052 12 225 3.2 8.0 0.00 0.00 0.00 95 1008.6
20260506090552 12 228 3.2 8.0 0.00 0.00 0.00 95 1008.6
20260506090051 12 234 1.6 6.4 0.00 0.00 0.00 94 1008.6
20260506085550 12 226 3.2 6.4 0.00 0.00 0.00 93 1008.6
20260506085018 12 251 3.2 6.4 0.00 0.00 0.00 92 1008.6
20260506084517 12 230 1.6 6.4 0.00 0.00 0.00 92 1009.0
20260506084016 12 271 3.2 6.4 0.00 0.00 0.00 91 1009.0
20260506083516 12 286 3.2 8.0 0.00 0.00 0.00 90 1009.0
20260506083015 13 271 3.2 8.0 0.00 0.00 0.00 90 1009.0
20260506082514 13 272 3.2 8.0 0.00 0.00 0.00 89 1008.7
20260506082013 13 272 1.6 8.0 0.00 0.00 0.00 88 1008.7
20260506081441 13 258 1.6 8.0 0.00 0.00 0.00 87 1008.7
20260506080909 13 225 4.8 11.3 0.00 0.00 0.00 87 1008.7
20260506080408 13 222 6.4 11.3 0.00 0.00 0.00 86 1008.7
20260506073332 14 273 4.8 8.0 0.00 0.00 0.00 82 1008.7
20260506072800 15 282 3.2 6.4 0.00 0.00 0.00 82 1008.7
20260506072156 15 285 4.8 6.4 0.00 0.00 0.00 81 1008.7
20260506071656 15 281 3.2 8.0 0.00 0.00 0.00 81 1008.7
20260506071155 15 289 1.6 8.0 0.00 0.00 0.00 81 1008.7
20260506070654 15 287 3.2 6.4 0.00 0.00 0.00 80 1008.7